Total_Precipitation_Accumulation
0.89 0.91 0.89 0.81 0.77 0.75 0.77 0.75 0.68 0.60 0.53 0.46 0.42 0.41 0.40 0.37 0.36 0.38 0.41 0.45 0.52 0.55 0.52 0.51 0.54 0.57 0.62 0.67 0.75 0.84 0.93 1.01 1.10 0.94 0.75 0.70 0.73 0.76 0.79 0.69 0.62 0.58 0.53
0.73 0.71 0.71 0.63 0.58 0.57 0.57 0.56 0.52 0.48 0.48 0.47 0.45 0.43 0.39 0.35 0.32 0.33 0.34 0.34 0.37 0.40 0.42 0.42 0.41 0.42 0.48 0.53 0.61 0.66 0.72 0.81 0.94 0.90 0.72 0.67 0.70 0.76 0.83 0.81 0.69 0.60 0.56
0.47 0.47 0.52 0.53 0.50 0.52 0.49 0.48 0.50 0.47 0.44 0.42 0.42 0.41 0.37 0.35 0.35 0.35 0.31 0.31 0.31 0.31 0.34 0.36 0.37 0.40 0.44 0.49 0.56 0.60 0.64 0.69 0.83 0.89 0.78 0.70 0.71 0.77 0.87 0.84 0.70 0.68 0.52
0.39 0.37 0.40 0.43 0.43 0.44 0.45 0.44 0.42 0.40 0.38 0.33 0.30 0.31 0.32 0.31 0.28 0.27 0.26 0.26 0.26 0.26 0.27 0.29 0.31 0.37 0.43 0.48 0.51 0.55 0.63 0.72 0.77 0.83 0.81 0.79 0.80 0.81 0.89 0.94 0.80 0.70 0.56
0.39 0.39 0.40 0.42 0.40 0.41 0.42 0.41 0.37 0.33 0.30 0.26 0.23 0.24 0.26 0.25 0.22 0.21 0.21 0.20 0.22 0.25 0.27 0.27 0.26 0.32 0.40 0.44 0.47 0.57 0.69 0.79 0.80 0.83 0.83 0.84 0.85 0.92 0.92 0.88 0.82 0.70 0.55
0.47 0.48 0.44 0.42 0.42 0.43 0.41 0.37 0.32 0.30 0.27 0.24 0.23 0.21 0.19 0.17 0.18 0.18 0.17 0.21 0.25 0.30 0.34 0.31 0.25 0.24 0.28 0.33 0.41 0.49 0.58 0.71 0.81 0.87 0.88 0.85 0.83 0.87 0.88 0.86 0.86 0.83 0.68
0.51 0.48 0.44 0.39 0.37 0.36 0.33 0.33 0.28 0.27 0.26 0.24 0.22 0.21 0.20 0.15 0.12 0.12 0.15 0.18 0.27 0.34 0.37 0.35 0.28 0.23 0.28 0.33 0.35 0.38 0.46 0.58 0.75 0.88 0.92 0.82 0.84 0.91 0.97 0.96 0.86 0.86 0.82
0.47 0.43 0.36 0.33 0.34 0.32 0.31 0.31 0.28 0.29 0.32 0.27 0.23 0.22 0.23 0.14 0.10 0.10 0.13 0.20 0.30 0.32 0.30 0.30 0.35 0.39 0.32 0.29 0.31 0.43 0.58 0.67 0.69 0.69 0.81 0.82 0.83 0.82 0.79 0.80 0.78 0.83 0.77
0.39 0.35 0.30 0.26 0.27 0.27 0.27 0.30 0.31 0.33 0.37 0.30 0.23 0.24 0.24 0.17 0.10 0.11 0.14 0.22 0.28 0.28 0.26 0.25 0.28 0.36 0.31 0.34 0.44 0.63 0.83 0.98 0.84 0.76 0.79 0.89 0.91 0.80 0.64 0.64 0.84 0.94 0.79
0.32 0.29 0.26 0.26 0.27 0.28 0.30 0.32 0.29 0.32 0.38 0.29 0.21 0.21 0.20 0.17 0.10 0.11 0.16 0.21 0.28 0.29 0.31 0.30 0.31 0.33 0.33 0.44 0.55 0.78 0.99 1.10 0.93 0.85 0.94 1.06 1.01 0.92 0.83 0.85 0.97 0.94 0.81
0.21 0.21 0.22 0.25 0.25 0.23 0.28 0.32 0.31 0.32 0.36 0.32 0.26 0.24 0.20 0.15 0.11 0.10 0.12 0.17 0.23 0.30 0.33 0.38 0.40 0.40 0.38 0.48 0.65 0.82 1.03 1.07 1.00 0.96 0.93 0.94 0.93 0.92 0.87 0.88 0.85 0.80 0.78
0.17 0.19 0.20 0.20 0.17 0.17 0.26 0.30 0.31 0.35 0.34 0.32 0.30 0.27 0.22 0.18 0.12 0.08 0.08 0.10 0.16 0.31 0.42 0.45 0.44 0.42 0.44 0.60 0.73 0.91 1.14 1.24 1.10 0.94 0.81 0.76 0.74 0.77 0.75 0.66 0.60 0.58 0.63
0.18 0.22 0.21 0.19 0.18 0.17 0.21 0.24 0.26 0.33 0.33 0.30 0.28 0.27 0.23 0.21 0.13 0.06 0.06 0.08 0.12 0.23 0.38 0.49 0.49 0.44 0.60 0.88 1.03 1.14 1.31 1.37 1.15 0.88 0.75 0.68 0.62 0.59 0.57 0.57 0.52 0.49 0.47
0.23 0.23 0.21 0.22 0.23 0.19 0.18 0.16 0.18 0.22 0.24 0.27 0.27 0.27 0.25 0.23 0.15 0.10 0.10 0.12 0.15 0.19 0.30 0.45 0.57 0.62 0.78 1.07 1.27 1.37 1.42 1.32 1.07 0.86 0.73 0.65 0.56 0.52 0.53 0.50 0.49 0.45 0.47
0.22 0.19 0.18 0.18 0.19 0.20 0.16 0.11 0.09 0.09 0.08 0.14 0.21 0.23 0.23 0.18 0.10 0.10 0.12 0.14 0.16 0.20 0.26 0.41 0.60 0.71 0.91 1.12 1.24 1.26 1.21 1.11 1.01 0.84 0.71 0.64 0.60 0.55 0.54 0.48 0.45 0.40 0.45
0.19 0.16 0.14 0.13 0.12 0.11 0.14 0.12 0.06 0.04 0.04 0.06 0.09 0.11 0.12 0.09 0.07 0.07 0.09 0.13 0.17 0.23 0.31 0.50 0.67 0.77 0.92 1.04 1.11 1.09 1.01 0.92 0.83 0.74 0.68 0.62 0.58 0.55 0.53 0.45 0.39 0.38 0.44
0.14 0.13 0.11 0.08 0.08 0.10 0.12 0.16 0.17 0.11 0.06 0.05 0.06 0.08 0.07 0.06 0.05 0.05 0.07 0.13 0.15 0.22 0.36 0.56 0.72 0.84 0.93 0.97 0.97 0.93 0.88 0.82 0.72 0.65 0.61 0.57 0.51 0.47 0.45 0.40 0.35 0.35 0.36
0.07 0.05 0.06 0.07 0.07 0.08 0.08 0.09 0.15 0.22 0.22 0.17 0.09 0.06 0.05 0.06 0.07 0.07 0.09 0.13 0.21 0.26 0.42 0.57 0.69 0.75 0.81 0.85 0.83 0.82 0.78 0.70 0.62 0.58 0.57 0.54 0.46 0.40 0.37 0.34 0.31 0.28 0.27
0.05 0.05 0.03 0.03 0.03 0.03 0.03 0.04 0.07 0.12 0.17 0.19 0.16 0.11 0.07 0.08 0.11 0.13 0.15 0.20 0.29 0.35 0.43 0.53 0.60 0.64 0.68 0.71 0.69 0.65 0.63 0.60 0.53 0.48 0.49 0.49 0.46 0.39 0.33 0.26 0.22 0.17 0.18
0.02 0.02 0.01 0.01 0.01 0.01 0.02 0.03 0.05 0.08 0.11 0.14 0.17 0.14 0.13 0.20 0.26 0.25 0.21 0.21 0.26 0.33 0.40 0.48 0.51 0.50 0.51 0.53 0.50 0.45 0.45 0.45 0.43 0.42 0.42 0.41 0.39 0.33 0.26 0.21 0.18 0.15 0.15
0.01 0.01 0.00 0.00 0.00 0.01 0.01 0.02 0.04 0.06 0.10 0.13 0.13 0.11 0.18 0.25 0.33 0.31 0.28 0.28 0.31 0.34 0.35 0.38 0.41 0.42 0.37 0.35 0.35 0.34 0.35 0.36 0.36 0.37 0.35 0.34 0.31 0.26 0.20 0.15 0.12 0.10 0.09
0.00 0.00 0.00 0.00 0.00 0.00 0.01 0.02 0.03 0.04 0.07 0.10 0.11 0.10 0.18 0.24 0.31 0.33 0.33 0.34 0.36 0.37 0.35 0.33 0.32 0.33 0.34 0.33 0.31 0.30 0.30 0.30 0.32 0.33 0.31 0.29 0.26 0.20 0.15 0.11 0.08 0.06 0.06
0.00 0.00 0.00 0.00 0.00 0.00 0.01 0.01 0.02 0.03 0.04 0.06 0.07 0.09 0.14 0.24 0.30 0.36 0.39 0.39 0.38 0.36 0.31 0.28 0.29 0.31 0.30 0.27 0.25 0.24 0.24 0.25 0.28 0.30 0.30 0.26 0.21 0.17 0.12 0.09 0.06 0.05 0.03
0.00 0.00 0.00 0.00 0.00 0.00 0.01 0.01 0.01 0.02 0.02 0.04 0.05 0.08 0.12 0.19 0.25 0.33 0.40 0.42 0.44 0.42 0.37 0.33 0.31 0.30 0.27 0.24 0.24 0.22 0.18 0.19 0.22 0.25 0.26 0.22 0.16 0.12 0.09 0.07 0.05 0.04 0.03
0.00 0.00 0.00 0.00 0.00 0.00 0.00 0.01 0.01 0.01 0.01 0.02 0.03 0.05 0.07 0.12 0.18 0.25 0.31 0.37 0.41 0.45 0.45 0.42 0.38 0.32 0.26 0.21 0.17 0.14 0.16 0.19 0.17 0.17 0.22 0.19 0.12 0.08 0.07 0.06 0.05 0.04 0.04
0.00 0.00 0.00 0.00 0.00 0.00 0.00 0.01 0.01 0.00 0.01 0.01 0.02 0.03 0.05 0.09 0.13 0.17 0.20 0.22 0.26 0.33 0.39 0.44 0.43 0.33 0.24 0.19 0.17 0.16 0.15 0.10 0.07 0.07 0.16 0.17 0.11 0.08 0.07 0.06 0.05 0.04 0.05